GFSMA_prec_prec_273.txt.gz
QPF
0.00 0.00 0.00 0.00 0.00 0.00 0.00 0.00 0.02 0.01 0.06 0.09 0.00 0.00 0.02 0.00 0.00 0.04 0.01 0.02 0.01 0.04 0.06 0.00 0.00 0.00 0.00 0.02 0.04 0.00 0.00 0.01 0.03 0.00 0.00 0.00 0.00 0.00 0.00 0.00 0.00 0.00 0.00
0.00 0.00 0.00 0.00 0.00 0.00 0.00 0.01 0.08 0.06 0.06 0.08 0.07 0.00 0.00 0.00 0.05 0.02 0.02 0.00 0.00 0.07 0.06 0.00 0.00 0.00 0.00 0.01 0.07 0.03 0.00 0.01 0.01 0.00 0.00 0.00 0.02 0.00 0.00 0.00 0.00 0.00 0.00
0.00 0.00 0.00 0.00 0.01 0.01 0.01 0.00 0.03 0.08 0.16 0.14 0.24 0.08 0.04 0.03 0.06 0.01 0.02 0.03 0.04 0.01 0.03 0.00 0.00 0.00 0.00 0.03 0.03 0.01 0.00 0.00 0.01 0.00 0.00 0.00 0.00 0.00 0.00 0.00 0.00 0.00 0.00
0.01 0.13 0.18 0.14 0.12 0.07 0.10 0.04 0.13 0.18 0.17 0.11 0.13 0.13 0.17 0.04 0.02 0.01 0.00 0.12 0.11 0.00 0.02 0.01 0.00 0.00 0.01 0.02 0.03 0.01 0.00 0.00 0.00 0.00 0.00 0.00 0.00 0.00 0.00 0.00 0.00 0.00 0.00
0.04 0.17 0.26 0.26 0.19 0.00 0.06 0.23 0.15 0.15 0.19 0.17 0.11 0.12 0.16 0.08 0.00 0.03 0.14 0.16 0.01 0.00 0.00 0.00 0.00 0.00 0.01 0.00 0.01 0.01 0.00 0.00 0.00 0.00 0.00 0.00 0.00 0.00 0.00 0.00 0.00 0.00 0.00
0.02 0.09 0.13 0.18 0.22 0.05 0.07 0.26 0.23 0.06 0.16 0.17 0.19 0.16 0.12 0.03 0.00 0.00 0.10 0.18 0.03 0.00 0.04 0.02 0.00 0.00 0.00 0.01 0.04 0.02 0.00 0.00 0.00 0.00 0.00 0.00 0.00 0.00 0.00 0.00 0.00 0.00 0.00
0.01 0.02 0.06 0.13 0.12 0.20 0.19 0.19 0.08 0.01 0.16 0.24 0.19 0.19 0.13 0.14 0.01 0.00 0.05 0.16 0.12 0.01 0.02 0.08 0.00 0.00 0.00 0.00 0.01 0.02 0.01 0.00 0.00 0.00 0.00 0.00 0.00 0.00 0.00 0.00 0.00 0.00 0.00
0.00 0.00 0.00 0.02 0.03 0.16 0.02 0.00 0.08 0.06 0.21 0.27 0.04 0.17 0.15 0.12 0.10 0.03 0.04 0.13 0.11 0.07 0.03 0.03 0.00 0.00 0.00 0.00 0.00 0.00 0.00 0.00 0.00 0.00 0.00 0.00 0.00 0.00 0.00 0.00 0.00 0.00 0.00
0.00 0.00 0.00 0.00 0.02 0.10 0.05 0.00 0.04 0.04 0.18 0.32 0.14 0.18 0.15 0.07 0.12 0.17 0.11 0.08 0.16 0.15 0.03 0.00 0.00 0.00 0.00 0.00 0.00 0.00 0.00 0.00 0.00 0.00 0.00 0.00 0.00 0.00 0.00 0.00 0.00 0.00 0.00
0.00 0.00 0.00 0.00 0.01 0.03 0.06 0.12 0.05 0.00 0.04 0.19 0.14 0.10 0.09 0.14 0.09 0.20 0.20 0.09 0.11 0.14 0.05 0.00 0.00 0.00 0.00 0.00 0.00 0.00 0.00 0.00 0.00 0.00 0.00 0.00 0.00 0.00 0.00 0.00 0.00 0.00 0.00
0.01 0.01 0.00 0.00 0.01 0.02 0.06 0.07 0.05 0.01 0.01 0.12 0.20 0.18 0.19 0.16 0.13 0.18 0.20 0.02 0.02 0.09 0.05 0.00 0.00 0.00 0.00 0.00 0.00 0.00 0.00 0.00 0.00 0.00 0.00 0.00 0.00 0.00 0.00 0.00 0.00 0.00 0.00
0.02 0.04 0.05 0.01 0.00 0.01 0.04 0.13 0.11 0.08 0.07 0.07 0.14 0.12 0.07 0.12 0.10 0.14 0.13 0.08 0.00 0.01 0.05 0.00 0.00 0.00 0.00 0.00 0.00 0.00 0.00 0.00 0.00 0.00 0.00 0.00 0.00 0.00 0.00 0.00 0.00 0.00 0.00
0.00 0.01 0.09 0.11 0.02 0.01 0.02 0.08 0.08 0.03 0.01 0.04 0.10 0.11 0.04 0.03 0.09 0.06 0.12 0.13 0.04 0.02 0.01 0.00 0.00 0.00 0.00 0.00 0.00 0.00 0.00 0.00 0.00 0.00 0.00 0.00 0.00 0.00 0.00 0.00 0.00 0.00 0.00
0.00 0.07 0.11 0.03 0.02 0.05 0.08 0.07 0.09 0.04 0.04 0.06 0.05 0.08 0.11 0.04 0.07 0.00 0.05 0.32 0.12 0.11 0.07 0.00 0.00 0.00 0.00 0.00 0.00 0.00 0.00 0.00 0.00 0.00 0.00 0.00 0.00 0.00 0.00 0.00 0.00 0.00 0.00
0.03 0.02 0.01 0.02 0.03 0.06 0.09 0.13 0.14 0.11 0.14 0.11 0.06 0.05 0.12 0.12 0.05 0.00 0.01 0.07 0.07 0.13 0.12 0.05 0.01 0.00 0.00 0.00 0.00 0.00 0.00 0.00 0.00 0.00 0.00 0.00 0.00 0.00 0.00 0.00 0.00 0.00 0.00
0.04 0.11 0.14 0.09 0.08 0.08 0.06 0.13 0.12 0.11 0.09 0.10 0.12 0.05 0.16 0.13 0.08 0.00 0.01 0.00 0.01 0.05 0.20 0.10 0.02 0.00 0.00 0.00 0.00 0.00 0.00 0.00 0.00 0.00 0.00 0.00 0.00 0.00 0.00 0.00 0.00 0.00 0.00
0.02 0.07 0.08 0.07 0.07 0.04 0.02 0.01 0.02 0.05 0.12 0.13 0.13 0.15 0.16 0.15 0.06 0.06 0.04 0.01 0.00 0.01 0.16 0.07 0.29 0.07 0.01 0.00 0.00 0.00 0.00 0.00 0.00 0.00 0.00 0.00 0.00 0.00 0.00 0.00 0.00 0.00 0.00
0.01 0.02 0.03 0.02 0.04 0.05 0.04 0.03 0.03 0.06 0.13 0.17 0.14 0.13 0.18 0.20 0.15 0.11 0.04 0.03 0.08 0.01 0.13 0.08 0.11 0.16 0.07 0.03 0.06 0.04 0.00 0.00 0.00 0.00 0.00 0.00 0.00 0.00 0.00 0.00 0.00 0.00 0.00
0.01 0.03 0.03 0.04 0.03 0.04 0.06 0.07 0.05 0.06 0.07 0.12 0.21 0.18 0.15 0.20 0.16 0.15 0.09 0.20 0.04 0.02 0.05 0.07 0.08 0.14 0.08 0.05 0.12 0.14 0.07 0.02 0.01 0.02 0.02 0.00 0.00 0.00 0.00 0.00 0.00 0.00 0.00
0.00 0.01 0.02 0.03 0.03 0.02 0.01 0.01 0.02 0.02 0.01 0.03 0.13 0.11 0.13 0.16 0.21 0.23 0.12 0.22 0.36 0.08 0.14 0.16 0.07 0.05 0.04 0.07 0.12 0.14 0.13 0.17 0.18 0.05 0.01 0.02 0.00 0.00 0.00 0.00 0.00 0.00 0.00
0.00 0.00 0.02 0.02 0.01 0.01 0.00 0.00 0.01 0.01 0.00 0.00 0.05 0.16 0.52 0.34 0.21 0.14 0.08 0.07 0.12 0.15 0.14 0.13 0.04 0.00 0.01 0.07 0.09 0.09 0.18 0.23 0.23 0.15 0.06 0.01 0.00 0.00 0.00 0.00 0.00 0.00 0.00
0.01 0.01 0.02 0.02 0.01 0.00 0.00 0.00 0.00 0.00 0.00 0.00 0.00 0.07 0.19 0.21 0.11 0.09 0.12 0.08 0.09 0.13 0.12 0.14 0.10 0.08 0.09 0.08 0.10 0.08 0.13 0.10 0.15 0.06 0.04 0.01 0.00 0.00 0.00 0.00 0.00 0.00 0.00
0.04 0.04 0.05 0.06 0.02 0.00 0.00 0.00 0.00 0.00 0.01 0.01 0.00 0.00 0.01 0.04 0.06 0.07 0.08 0.09 0.12 0.17 0.19 0.21 0.18 0.12 0.14 0.10 0.08 0.07 0.10 0.11 0.17 0.05 0.02 0.06 0.00 0.00 0.00 0.00 0.00 0.00 0.00
0.03 0.04 0.03 0.01 0.00 0.00 0.00 0.00 0.00 0.02 0.04 0.02 0.01 0.00 0.00 0.00 0.00 0.00 0.01 0.01 0.01 0.01 0.06 0.05 0.08 0.11 0.20 0.22 0.20 0.16 0.13 0.13 0.15 0.09 0.04 0.08 0.02 0.00 0.00 0.00 0.00 0.00 0.00
0.01 0.01 0.00 0.00 0.00 0.00 0.00 0.00 0.00 0.01 0.05 0.07 0.01 0.00 0.00 0.00 0.00 0.00 0.00 0.00 0.00 0.00 0.00 0.00 0.04 0.05 0.10 0.09 0.12 0.07 0.08 0.08 0.07 0.03 0.00 0.02 0.02 0.00 0.00 0.00 0.00 0.00 0.00
0.01 0.01 0.00 0.00 0.00 0.00 0.00 0.00 0.00 0.00 0.00 0.04 0.07 0.02 0.00 0.00 0.00 0.00 0.00 0.00 0.00 0.00 0.00 0.00 0.00 0.00 0.00 0.00 0.00 0.00 0.01 0.01 0.01 0.00 0.00 0.00 0.00 0.00 0.00 0.00 0.00 0.00 0.00

GFSMA_prec_prec_276.txt.gz
QPF
0.00 0.00 0.00 0.00 0.00 0.00 0.00 0.01 0.02 0.03 0.11 0.19 0.01 0.00 0.01 0.08 0.07 0.05 0.05 0.04 0.06 0.00 0.00 0.00 0.00 0.00 0.00 0.00 0.00 0.00 0.00 0.00 0.02 0.00 0.00 0.00 0.01 0.01 0.00 0.02 0.01 0.00 0.00
0.00 0.00 0.00 0.00 0.00 0.00 0.00 0.01 0.02 0.02 0.08 0.07 0.03 0.00 0.00 0.03 0.07 0.07 0.02 0.02 0.05 0.02 0.00 0.00 0.00 0.00 0.00 0.00 0.01 0.00 0.01 0.01 0.01 0.00 0.02 0.01 0.01 0.01 0.01 0.00 0.00 0.00 0.00
0.00 0.01 0.03 0.02 0.01 0.00 0.00 0.03 0.06 0.08 0.04 0.16 0.13 0.03 0.00 0.01 0.03 0.04 0.05 0.04 0.02 0.10 0.06 0.00 0.00 0.00 0.00 0.00 0.02 0.02 0.03 0.04 0.02 0.01 0.04 0.00 0.01 0.01 0.00 0.00 0.00 0.00 0.00
0.01 0.04 0.09 0.13 0.09 0.04 0.01 0.10 0.10 0.10 0.13 0.13 0.14 0.15 0.05 0.02 0.00 0.01 0.08 0.11 0.15 0.03 0.03 0.02 0.01 0.00 0.00 0.00 0.00 0.01 0.03 0.03 0.02 0.02 0.01 0.00 0.00 0.00 0.00 0.00 0.00 0.00 0.00
0.00 0.06 0.12 0.10 0.03 0.02 0.13 0.23 0.11 0.12 0.32 0.31 0.17 0.12 0.04 0.10 0.02 0.01 0.04 0.09 0.12 0.01 0.00 0.00 0.00 0.00 0.00 0.00 0.00 0.00 0.00 0.00 0.02 0.02 0.02 0.00 0.00 0.00 0.00 0.00 0.00 0.00 0.00
0.00 0.03 0.06 0.20 0.17 0.10 0.28 0.25 0.17 0.07 0.16 0.38 0.30 0.18 0.06 0.09 0.03 0.00 0.01 0.12 0.04 0.00 0.00 0.00 0.00 0.00 0.00 0.00 0.01 0.01 0.01 0.00 0.00 0.00 0.01 0.00 0.00 0.00 0.00 0.00 0.00 0.00 0.00
0.00 0.03 0.04 0.06 0.12 0.07 0.11 0.07 0.22 0.16 0.08 0.33 0.40 0.19 0.17 0.23 0.14 0.00 0.02 0.13 0.06 0.00 0.03 0.02 0.00 0.00 0.00 0.00 0.00 0.01 0.01 0.01 0.00 0.00 0.00 0.00 0.01 0.00 0.00 0.00 0.00 0.00 0.00
0.00 0.02 0.04 0.01 0.01 0.03 0.02 0.02 0.03 0.11 0.21 0.17 0.23 0.13 0.21 0.18 0.25 0.02 0.00 0.05 0.12 0.14 0.04 0.02 0.00 0.00 0.00 0.00 0.00 0.00 0.00 0.01 0.00 0.00 0.00 0.00 0.00 0.00 0.00 0.00 0.00 0.00 0.00
0.00 0.00 0.00 0.00 0.00 0.01 0.07 0.04 0.01 0.04 0.23 0.11 0.15 0.19 0.10 0.17 0.10 0.13 0.07 0.03 0.07 0.19 0.07 0.04 0.01 0.00 0.00 0.00 0.00 0.00 0.00 0.00 0.00 0.00 0.00 0.00 0.00 0.00 0.00 0.00 0.00 0.00 0.00
0.00 0.00 0.00 0.00 0.00 0.00 0.01 0.06 0.09 0.08 0.06 0.06 0.08 0.10 0.14 0.17 0.08 0.08 0.19 0.19 0.12 0.12 0.10 0.01 0.00 0.00 0.00 0.00 0.00 0.00 0.00 0.00 0.00 0.00 0.00 0.00 0.00 0.00 0.00 0.00 0.00 0.00 0.00
0.00 0.00 0.00 0.00 0.00 0.00 0.01 0.04 0.09 0.11 0.04 0.05 0.08 0.17 0.16 0.22 0.16 0.05 0.15 0.12 0.12 0.10 0.12 0.01 0.00 0.00 0.00 0.00 0.00 0.00 0.00 0.00 0.00 0.00 0.00 0.00 0.00 0.00 0.00 0.00 0.00 0.00 0.00
0.00 0.00 0.00 0.00 0.00 0.00 0.00 0.04 0.09 0.14 0.16 0.13 0.12 0.20 0.13 0.08 0.17 0.14 0.08 0.17 0.02 0.01 0.05 0.03 0.00 0.00 0.00 0.00 0.00 0.00 0.00 0.00 0.00 0.00 0.00 0.00 0.00 0.00 0.00 0.00 0.00 0.00 0.00
0.00 0.00 0.00 0.00 0.02 0.01 0.00 0.01 0.01 0.08 0.13 0.10 0.09 0.09 0.16 0.05 0.11 0.15 0.17 0.14 0.09 0.03 0.01 0.02 0.00 0.00 0.00 0.00 0.00 0.00 0.00 0.00 0.00 0.00 0.00 0.00 0.00 0.00 0.00 0.00 0.00 0.00 0.00
0.00 0.00 0.00 0.00 0.00 0.00 0.00 0.03 0.05 0.02 0.11 0.06 0.04 0.09 0.16 0.03 0.03 0.03 0.13 0.22 0.29 0.19 0.04 0.01 0.00 0.00 0.00 0.00 0.00 0.00 0.00 0.00 0.00 0.00 0.00 0.00 0.00 0.00 0.00 0.00 0.00 0.00 0.00
0.01 0.00 0.00 0.00 0.00 0.00 0.01 0.05 0.05 0.01 0.03 0.07 0.11 0.19 0.16 0.05 0.07 0.06 0.14 0.30 0.20 0.16 0.08 0.02 0.01 0.00 0.00 0.00 0.00 0.00 0.00 0.00 0.00 0.00 0.00 0.00 0.00 0.00 0.00 0.00 0.00 0.00 0.00
0.00 0.01 0.00 0.00 0.00 0.00 0.03 0.05 0.02 0.11 0.16 0.09 0.03 0.03 0.01 0.02 0.08 0.07 0.14 0.18 0.13 0.12 0.14 0.11 0.03 0.00 0.00 0.00 0.00 0.00 0.00 0.00 0.00 0.00 0.00 0.00 0.00 0.00 0.00 0.00 0.00 0.00 0.00
0.03 0.02 0.01 0.01 0.01 0.01 0.04 0.05 0.01 0.16 0.12 0.08 0.09 0.06 0.19 0.13 0.12 0.09 0.11 0.14 0.11 0.15 0.25 0.11 0.10 0.36 0.05 0.00 0.00 0.00 0.00 0.00 0.00 0.00 0.00 0.00 0.00 0.00 0.00 0.00 0.00 0.00 0.00
0.01 0.02 0.03 0.01 0.01 0.01 0.04 0.02 0.01 0.03 0.05 0.06 0.08 0.13 0.17 0.16 0.24 0.18 0.11 0.10 0.11 0.11 0.12 0.11 0.20 0.82 0.19 0.08 0.04 0.02 0.00 0.00 0.00 0.00 0.00 0.00 0.00 0.00 0.00 0.00 0.00 0.00 0.00
0.01 0.01 0.01 0.03 0.03 0.03 0.03 0.03 0.06 0.09 0.09 0.09 0.07 0.08 0.11 0.21 0.27 0.15 0.16 0.14 0.19 0.31 0.53 0.19 0.14 0.33 0.17 0.15 0.10 0.04 0.02 0.01 0.00 0.00 0.00 0.00 0.00 0.00 0.00 0.00 0.00 0.00 0.00
0.01 0.02 0.03 0.03 0.02 0.01 0.02 0.03 0.06 0.06 0.04 0.02 0.04 0.11 0.14 0.12 0.10 0.11 0.10 0.14 1.11 1.25 0.82 0.16 0.15 0.19 0.16 0.19 0.12 0.08 0.11 0.15 0.14 0.02 0.00 0.00 0.02 0.00 0.00 0.00 0.00 0.00 0.00
0.01 0.01 0.01 0.02 0.03 0.02 0.01 0.02 0.02 0.01 0.00 0.00 0.02 0.07 0.04 0.06 0.08 0.06 0.06 0.03 0.39 0.97 0.55 0.15 0.10 0.18 0.22 0.15 0.08 0.10 0.08 0.22 0.06 0.07 0.10 0.04 0.03 0.01 0.00 0.00 0.00 0.00 0.00
0.00 0.00 0.01 0.03 0.05 0.01 0.00 0.00 0.01 0.01 0.00 0.00 0.00 0.00 0.02 0.03 0.07 0.05 0.03 0.03 0.02 0.05 0.07 0.07 0.12 0.15 0.17 0.13 0.15 0.15 0.09 0.07 0.04 0.04 0.13 0.14 0.02 0.00 0.00 0.00 0.00 0.00 0.00
0.00 0.00 0.01 0.02 0.02 0.00 0.00 0.00 0.00 0.00 0.00 0.00 0.00 0.00 0.00 0.00 0.01 0.04 0.06 0.05 0.05 0.06 0.03 0.04 0.07 0.14 0.17 0.14 0.11 0.12 0.08 0.09 0.07 0.06 0.13 0.15 0.02 0.02 0.00 0.00 0.00 0.00 0.00
0.06 0.09 0.04 0.03 0.00 0.00 0.00 0.00 0.00 0.00 0.03 0.02 0.01 0.00 0.00 0.00 0.00 0.00 0.01 0.01 0.01 0.01 0.00 0.01 0.04 0.11 0.21 0.12 0.14 0.29 0.30 0.21 0.22 0.10 0.09 0.17 0.07 0.06 0.04 0.00 0.00 0.00 0.00
0.03 0.05 0.06 0.06 0.03 0.00 0.00 0.00 0.00 0.00 0.05 0.06 0.03 0.00 0.00 0.00 0.00 0.00 0.00 0.00 0.00 0.00 0.00 0.00 0.01 0.05 0.12 0.15 0.17 0.16 0.21 0.26 0.25 0.21 0.11 0.15 0.08 0.07 0.02 0.01 0.00 0.00 0.00
0.03 0.07 0.10 0.08 0.02 0.00 0.00 0.00 0.00 0.00 0.00 0.04 0.05 0.01 0.00 0.00 0.00 0.00 0.00 0.00 0.00 0.00 0.00 0.00 0.00 0.00 0.00 0.01 0.04 0.05 0.08 0.12 0.12 0.10 0.05 0.07 0.04 0.06 0.05 0.00 0.00 0.00 0.00

GFSMA_prec_prec_279.txt.gz
QPF
0.00 0.00 0.00 0.00 0.00 0.00 0.02 0.04 0.10 0.09 0.12 0.07 0.01 0.02 0.13 0.28 0.03 0.02 0.01 0.00 0.03 0.02 0.00 0.00 0.00 0.00 0.00 0.00 0.00 0.00 0.00 0.00 0.01 0.01 0.01 0.00 0.00 0.00 0.00 0.00 0.00 0.00 0.00
0.00 0.00 0.00 0.00 0.00 0.00 0.00 0.01 0.02 0.10 0.06 0.04 0.05 0.03 0.03 0.04 0.05 0.04 0.04 0.00 0.01 0.04 0.03 0.00 0.01 0.01 0.00 0.00 0.00 0.00 0.00 0.00 0.00 0.00 0.00 0.01 0.00 0.00 0.00 0.00 0.00 0.00 0.00
0.00 0.00 0.00 0.00 0.00 0.02 0.05 0.12 0.04 0.07 0.04 0.01 0.03 0.02 0.02 0.03 0.06 0.06 0.02 0.00 0.01 0.02 0.04 0.03 0.02 0.02 0.00 0.00 0.00 0.01 0.02 0.02 0.01 0.00 0.01 0.01 0.00 0.01 0.00 0.00 0.00 0.00 0.00
0.00 0.00 0.00 0.00 0.00 0.02 0.05 0.08 0.14 0.19 0.14 0.11 0.05 0.01 0.02 0.01 0.02 0.01 0.04 0.00 0.00 0.00 0.01 0.05 0.06 0.01 0.01 0.00 0.00 0.00 0.01 0.02 0.02 0.01 0.02 0.01 0.00 0.00 0.00 0.00 0.00 0.00 0.00
0.00 0.00 0.00 0.00 0.00 0.00 0.02 0.04 0.11 0.15 0.19 0.12 0.09 0.07 0.01 0.02 0.04 0.03 0.01 0.04 0.08 0.01 0.00 0.04 0.04 0.00 0.00 0.00 0.00 0.00 0.00 0.00 0.00 0.00 0.01 0.01 0.00 0.00 0.00 0.00 0.00 0.00 0.00
0.00 0.00 0.00 0.00 0.00 0.00 0.10 0.07 0.26 0.05 0.06 0.18 0.20 0.12 0.01 0.06 0.04 0.13 0.01 0.02 0.07 0.01 0.00 0.00 0.01 0.00 0.00 0.00 0.00 0.00 0.00 0.00 0.00 0.00 0.00 0.00 0.00 0.00 0.00 0.00 0.00 0.00 0.00
0.00 0.00 0.00 0.00 0.02 0.01 0.00 0.00 0.02 0.08 0.07 0.04 0.14 0.06 0.05 0.07 0.11 0.11 0.07 0.00 0.00 0.00 0.00 0.00 0.00 0.00 0.00 0.00 0.00 0.00 0.00 0.00 0.00 0.00 0.00 0.00 0.00 0.00 0.00 0.00 0.00 0.00 0.00
0.00 0.00 0.00 0.00 0.00 0.00 0.01 0.00 0.01 0.07 0.12 0.03 0.06 0.07 0.04 0.08 0.16 0.10 0.02 0.00 0.00 0.02 0.00 0.00 0.00 0.00 0.00 0.00 0.00 0.00 0.00 0.00 0.00 0.00 0.00 0.00 0.00 0.00 0.00 0.00 0.00 0.00 0.00
0.00 0.00 0.00 0.00 0.00 0.00 0.07 0.04 0.09 0.04 0.06 0.00 0.01 0.05 0.03 0.04 0.09 0.10 0.03 0.00 0.03 0.05 0.00 0.00 0.00 0.00 0.00 0.00 0.00 0.00 0.00 0.00 0.00 0.00 0.00 0.00 0.00 0.00 0.00 0.00 0.00 0.00 0.00
0.00 0.00 0.00 0.00 0.00 0.00 0.00 0.00 0.14 0.14 0.08 0.02 0.00 0.01 0.02 0.04 0.03 0.05 0.03 0.01 0.09 0.11 0.00 0.00 0.00 0.00 0.00 0.00 0.00 0.00 0.00 0.00 0.00 0.00 0.00 0.00 0.00 0.00 0.00 0.00 0.00 0.00 0.00
0.00 0.00 0.00 0.00 0.00 0.00 0.00 0.01 0.04 0.15 0.13 0.09 0.02 0.00 0.03 0.03 0.06 0.07 0.08 0.07 0.03 0.10 0.02 0.00 0.00 0.00 0.00 0.00 0.00 0.00 0.00 0.00 0.00 0.00 0.00 0.00 0.00 0.00 0.00 0.00 0.00 0.00 0.00
0.00 0.00 0.00 0.00 0.00 0.01 0.00 0.02 0.03 0.05 0.16 0.20 0.23 0.06 0.01 0.06 0.11 0.12 0.04 0.07 0.05 0.03 0.03 0.00 0.00 0.00 0.00 0.00 0.00 0.00 0.00 0.00 0.00 0.00 0.00 0.00 0.00 0.00 0.00 0.00 0.00 0.00 0.00
0.02 0.00 0.00 0.00 0.00 0.00 0.00 0.00 0.00 0.00 0.01 0.02 0.13 0.14 0.02 0.02 0.07 0.05 0.11 0.07 0.13 0.14 0.06 0.00 0.00 0.00 0.00 0.00 0.00 0.00 0.00 0.00 0.00 0.00 0.00 0.00 0.00 0.00 0.00 0.00 0.00 0.00 0.00
0.16 0.10 0.10 0.01 0.00 0.00 0.00 0.00 0.00 0.01 0.00 0.00 0.09 0.05 0.11 0.03 0.12 0.12 0.14 0.11 0.09 0.15 0.05 0.00 0.00 0.00 0.00 0.00 0.00 0.00 0.00 0.00 0.00 0.00 0.00 0.00 0.00 0.00 0.00 0.00 0.00 0.00 0.00
0.03 0.32 0.24 0.10 0.00 0.00 0.00 0.00 0.00 0.01 0.01 0.02 0.05 0.18 0.13 0.07 0.07 0.09 0.16 0.07 0.15 0.26 0.04 0.01 0.00 0.00 0.00 0.00 0.00 0.00 0.00 0.00 0.00 0.00 0.00 0.00 0.00 0.00 0.00 0.00 0.00 0.00 0.00
0.04 0.31 0.04 0.01 0.00 0.00 0.00 0.00 0.00 0.00 0.00 0.03 0.02 0.04 0.14 0.13 0.04 0.01 0.26 0.13 0.14 0.08 0.06 0.05 0.04 0.03 0.00 0.00 0.00 0.00 0.00 0.00 0.00 0.00 0.00 0.00 0.00 0.00 0.00 0.00 0.00 0.00 0.00
0.02 0.02 0.01 0.00 0.00 0.00 0.00 0.00 0.00 0.04 0.06 0.02 0.03 0.01 0.21 0.34 0.13 0.06 0.07 0.26 0.23 0.16 0.18 0.17 0.12 0.17 0.08 0.00 0.00 0.00 0.00 0.00 0.00 0.00 0.00 0.00 0.00 0.00 0.00 0.00 0.00 0.00 0.00
0.00 0.00 0.00 0.00 0.00 0.00 0.00 0.00 0.00 0.06 0.04 0.04 0.11 0.12 0.06 0.19 0.15 0.09 0.07 0.17 0.24 0.31 0.49 0.43 0.24 0.10 0.20 0.05 0.00 0.00 0.00 0.00 0.00 0.00 0.00 0.00 0.00 0.00 0.00 0.00 0.00 0.00 0.00
0.00 0.00 0.00 0.00 0.00 0.00 0.00 0.00 0.00 0.02 0.02 0.04 0.01 0.03 0.07 0.15 0.23 0.16 0.18 0.19 0.13 0.16 0.35 1.09 0.39 0.19 0.17 0.10 0.07 0.04 0.00 0.00 0.00 0.00 0.00 0.00 0.00 0.00 0.00 0.00 0.00 0.00 0.00
0.00 0.00 0.00 0.00 0.00 0.00 0.00 0.00 0.00 0.00 0.00 0.00 0.01 0.01 0.03 0.03 0.18 0.16 0.10 0.06 0.05 0.11 0.35 0.69 0.46 0.13 0.06 0.11 0.07 0.09 0.08 0.03 0.02 0.02 0.00 0.00 0.00 0.00 0.00 0.00 0.00 0.00 0.00
0.00 0.00 0.00 0.00 0.00 0.00 0.00 0.00 0.00 0.00 0.00 0.00 0.00 0.01 0.06 0.13 0.17 0.17 0.16 0.09 0.03 0.03 0.16 0.28 0.25 0.26 0.16 0.12 0.08 0.07 0.08 0.17 0.12 0.12 0.05 0.04 0.02 0.01 0.01 0.00 0.00 0.00 0.00
0.00 0.00 0.00 0.00 0.00 0.00 0.00 0.00 0.00 0.00 0.00 0.00 0.00 0.00 0.00 0.02 0.04 0.08 0.09 0.07 0.02 0.01 0.11 0.30 0.23 0.29 0.33 0.26 0.17 0.15 0.16 0.16 0.08 0.01 0.07 0.13 0.12 0.14 0.08 0.03 0.02 0.00 0.00
0.00 0.00 0.00 0.00 0.00 0.00 0.00 0.00 0.00 0.00 0.00 0.00 0.00 0.00 0.00 0.00 0.00 0.00 0.01 0.04 0.03 0.02 0.02 0.02 0.05 0.08 0.13 0.16 0.12 0.14 0.17 0.25 0.20 0.14 0.14 0.24 0.27 0.29 0.19 0.10 0.05 0.02 0.00
0.00 0.00 0.00 0.00 0.00 0.00 0.00 0.00 0.00 0.00 0.00 0.00 0.00 0.00 0.00 0.00 0.00 0.00 0.00 0.01 0.02 0.04 0.03 0.01 0.00 0.01 0.04 0.07 0.03 0.08 0.12 0.11 0.09 0.06 0.09 0.08 0.14 0.16 0.18 0.15 0.09 0.01 0.00
0.00 0.00 0.00 0.00 0.00 0.00 0.00 0.00 0.00 0.00 0.00 0.00 0.00 0.00 0.00 0.00 0.00 0.00 0.00 0.00 0.00 0.00 0.00 0.00 0.00 0.00 0.01 0.04 0.06 0.12 0.17 0.09 0.05 0.03 0.05 0.11 0.08 0.06 0.05 0.06 0.03 0.02 0.01
0.04 0.09 0.07 0.08 0.07 0.00 0.02 0.02 0.00 0.00 0.00 0.00 0.00 0.00 0.00 0.00 0.00 0.00 0.00 0.00 0.00 0.00 0.00 0.00 0.00 0.00 0.00 0.00 0.02 0.02 0.03 0.05 0.06 0.03 0.04 0.08 0.15 0.12 0.03 0.04 0.03 0.00 0.01

GFSMA_prec_prec_282.txt.gz
QPF
0.00 0.00 0.00 0.00 0.00 0.00 0.06 0.08 0.02 0.03 0.13 0.02 0.07 0.01 0.00 0.03 0.01 0.01 0.00 0.03 0.03 0.01 0.00 0.00 0.02 0.01 0.00 0.00 0.00 0.00 0.00 0.00 0.00 0.01 0.00 0.03 0.00 0.00 0.00 0.00 0.00 0.00 0.00
0.00 0.00 0.00 0.00 0.00 0.00 0.00 0.03 0.10 0.04 0.17 0.06 0.03 0.02 0.00 0.01 0.01 0.01 0.00 0.00 0.02 0.03 0.08 0.02 0.03 0.04 0.02 0.00 0.00 0.00 0.00 0.00 0.00 0.00 0.01 0.03 0.01 0.01 0.00 0.00 0.00 0.00 0.00
0.00 0.00 0.00 0.00 0.00 0.00 0.00 0.05 0.12 0.06 0.05 0.03 0.02 0.01 0.00 0.00 0.00 0.01 0.00 0.00 0.01 0.05 0.06 0.10 0.07 0.11 0.03 0.01 0.00 0.00 0.01 0.01 0.00 0.00 0.00 0.00 0.01 0.00 0.00 0.00 0.00 0.00 0.00
0.00 0.00 0.00 0.00 0.00 0.00 0.00 0.01 0.12 0.18 0.15 0.04 0.08 0.03 0.00 0.00 0.00 0.06 0.02 0.00 0.00 0.03 0.07 0.16 0.10 0.07 0.07 0.02 0.00 0.00 0.00 0.01 0.00 0.00 0.00 0.00 0.00 0.00 0.00 0.00 0.00 0.00 0.00
0.00 0.00 0.00 0.00 0.00 0.00 0.01 0.02 0.03 0.08 0.06 0.02 0.07 0.07 0.01 0.00 0.00 0.02 0.04 0.00 0.00 0.01 0.08 0.05 0.05 0.09 0.04 0.02 0.00 0.00 0.00 0.00 0.00 0.00 0.01 0.01 0.01 0.01 0.00 0.00 0.00 0.00 0.00
0.00 0.00 0.00 0.00 0.00 0.04 0.00 0.02 0.04 0.09 0.00 0.00 0.05 0.04 0.03 0.09 0.02 0.04 0.02 0.00 0.01 0.01 0.04 0.09 0.05 0.04 0.06 0.04 0.01 0.00 0.00 0.00 0.00 0.00 0.00 0.00 0.00 0.00 0.00 0.00 0.00 0.00 0.00
0.00 0.00 0.00 0.00 0.00 0.01 0.00 0.01 0.05 0.00 0.00 0.00 0.00 0.00 0.01 0.05 0.05 0.05 0.02 0.00 0.00 0.01 0.01 0.01 0.01 0.02 0.02 0.05 0.02 0.01 0.00 0.00 0.00 0.00 0.00 0.00 0.00 0.00 0.00 0.00 0.00 0.00 0.00
0.00 0.00 0.00 0.00 0.00 0.00 0.00 0.00 0.01 0.00 0.00 0.00 0.00 0.03 0.02 0.00 0.03 0.02 0.00 0.00 0.00 0.00 0.00 0.00 0.00 0.00 0.00 0.02 0.01 0.01 0.00 0.01 0.00 0.00 0.00 0.00 0.00 0.00 0.00 0.00 0.00 0.00 0.00
0.00 0.00 0.00 0.00 0.00 0.00 0.00 0.00 0.00 0.00 0.00 0.00 0.00 0.01 0.00 0.01 0.02 0.02 0.03 0.00 0.00 0.00 0.00 0.00 0.00 0.00 0.00 0.00 0.00 0.01 0.00 0.00 0.00 0.00 0.00 0.00 0.00 0.00 0.00 0.00 0.00 0.00 0.00
0.00 0.00 0.00 0.00 0.00 0.00 0.00 0.03 0.02 0.02 0.00 0.02 0.01 0.00 0.00 0.00 0.01 0.02 0.03 0.00 0.00 0.00 0.00 0.00 0.00 0.00 0.00 0.00 0.00 0.00 0.00 0.00 0.00 0.00 0.00 0.00 0.00 0.00 0.00 0.00 0.00 0.00 0.00
0.00 0.00 0.00 0.00 0.00 0.00 0.00 0.00 0.00 0.06 0.03 0.02 0.00 0.00 0.00 0.00 0.01 0.01 0.05 0.03 0.00 0.00 0.00 0.00 0.00 0.00 0.00 0.00 0.00 0.00 0.00 0.00 0.00 0.00 0.00 0.00 0.00 0.00 0.00 0.00 0.00 0.00 0.00
0.00 0.00 0.00 0.00 0.00 0.00 0.00 0.00 0.01 0.01 0.08 0.15 0.07 0.01 0.00 0.00 0.04 0.07 0.03 0.07 0.04 0.01 0.01 0.00 0.00 0.00 0.00 0.00 0.00 0.00 0.00 0.00 0.00 0.00 0.00 0.00 0.00 0.00 0.00 0.00 0.00 0.00 0.00
0.00 0.00 0.01 0.00 0.00 0.04 0.01 0.00 0.00 0.00 0.00 0.05 0.13 0.09 0.03 0.01 0.02 0.06 0.03 0.02 0.02 0.06 0.01 0.00 0.00 0.00 0.00 0.00 0.00 0.00 0.00 0.00 0.00 0.00 0.00 0.00 0.00 0.00 0.00 0.00 0.00 0.00 0.00
0.05 0.05 0.05 0.03 0.00 0.04 0.04 0.00 0.00 0.01 0.03 0.02 0.02 0.01 0.00 0.01 0.01 0.01 0.04 0.04 0.02 0.05 0.01 0.00 0.00 0.00 0.00 0.00 0.00 0.00 0.00 0.00 0.00 0.00 0.00 0.00 0.00 0.00 0.00 0.00 0.00 0.00 0.00
0.05 0.16 0.17 0.18 0.03 0.00 0.01 0.03 0.00 0.01 0.04 0.04 0.01 0.05 0.04 0.05 0.03 0.01 0.07 0.06 0.02 0.03 0.03 0.01 0.00 0.00 0.00 0.00 0.00 0.00 0.00 0.00 0.00 0.00 0.00 0.00 0.00 0.00 0.00 0.00 0.00 0.00 0.00
0.04 0.12 0.35 0.14 0.00 0.01 0.00 0.00 0.00 0.00 0.01 0.04 0.02 0.03 0.06 0.08 0.09 0.01 0.06 0.09 0.06 0.02 0.05 0.04 0.01 0.00 0.00 0.00 0.00 0.00 0.00 0.00 0.00 0.00 0.00 0.00 0.00 0.00 0.00 0.00 0.00 0.00 0.00
0.00 0.04 0.05 0.02 0.00 0.00 0.00 0.00 0.00 0.00 0.00 0.00 0.04 0.02 0.00 0.05 0.07 0.06 0.07 0.07 0.08 0.04 0.03 0.06 0.04 0.01 0.00 0.00 0.00 0.00 0.00 0.00 0.00 0.00 0.00 0.00 0.00 0.00 0.00 0.00 0.00 0.00 0.00
0.00 0.00 0.00 0.00 0.00 0.00 0.00 0.00 0.00 0.01 0.01 0.00 0.05 0.02 0.00 0.02 0.02 0.04 0.09 0.09 0.06 0.07 0.07 0.03 0.02 0.01 0.02 0.01 0.00 0.00 0.00 0.00 0.00 0.00 0.00 0.00 0.00 0.00 0.00 0.00 0.00 0.00 0.00
0.00 0.00 0.00 0.00 0.00 0.00 0.00 0.00 0.00 0.00 0.00 0.00 0.00 0.00 0.03 0.04 0.02 0.07 0.07 0.06 0.02 0.01 0.10 0.15 0.09 0.07 0.07 0.07 0.03 0.02 0.00 0.00 0.00 0.00 0.00 0.00 0.00 0.00 0.00 0.00 0.00 0.00 0.00
0.00 0.00 0.00 0.00 0.00 0.00 0.00 0.00 0.00 0.00 0.00 0.00 0.00 0.00 0.00 0.00 0.01 0.03 0.05 0.06 0.07 0.05 0.09 0.07 0.04 0.08 0.05 0.11 0.08 0.05 0.02 0.00 0.00 0.00 0.00 0.00 0.00 0.00 0.00 0.00 0.00 0.00 0.00
0.00 0.00 0.00 0.00 0.00 0.00 0.00 0.00 0.00 0.00 0.00 0.00 0.00 0.00 0.00 0.00 0.06 0.05 0.05 0.06 0.09 0.10 0.12 0.06 0.02 0.03 0.02 0.01 0.03 0.04 0.07 0.14 0.10 0.06 0.06 0.05 0.04 0.01 0.00 0.00 0.00 0.00 0.00
0.00 0.00 0.00 0.00 0.00 0.00 0.00 0.00 0.00 0.00 0.00 0.00 0.00 0.00 0.00 0.00 0.02 0.08 0.11 0.08 0.07 0.06 0.05 0.02 0.00 0.04 0.06 0.03 0.01 0.06 0.13 0.22 0.10 0.04 0.07 0.04 0.09 0.05 0.07 0.07 0.06 0.01 0.00
0.00 0.00 0.00 0.00 0.00 0.00 0.00 0.00 0.00 0.00 0.00 0.00 0.00 0.00 0.00 0.00 0.00 0.00 0.05 0.07 0.04 0.02 0.02 0.01 0.01 0.02 0.04 0.17 0.12 0.06 0.07 0.08 0.02 0.08 0.16 0.16 0.17 0.10 0.16 0.17 0.16 0.12 0.05
0.00 0.00 0.00 0.00 0.00 0.00 0.00 0.00 0.00 0.00 0.02 0.01 0.02 0.00 0.00 0.00 0.00 0.00 0.00 0.00 0.00 0.03 0.04 0.04 0.02 0.03 0.03 0.08 0.39 0.30 0.18 0.11 0.03 0.01 0.03 0.03 0.03 0.03 0.04 0.10 0.14 0.11 0.07
0.00 0.01 0.03 0.02 0.06 0.08 0.09 0.05 0.01 0.00 0.00 0.02 0.01 0.00 0.00 0.00 0.00 0.00 0.00 0.00 0.00 0.00 0.00 0.04 0.05 0.01 0.02 0.03 0.08 0.17 0.18 0.12 0.04 0.02 0.02 0.09 0.07 0.10 0.10 0.04 0.09 0.09 0.03
0.01 0.05 0.07 0.16 0.26 0.22 0.22 0.14 0.06 0.01 0.00 0.00 0.00 0.00 0.00 0.00 0.00 0.00 0.00 0.00 0.00 0.00 0.00 0.00 0.01 0.01 0.01 0.00 0.01 0.05 0.13 0.07 0.07 0.05 0.06 0.07 0.06 0.08 0.07 0.06 0.07 0.05 0.07

GFSMA_prec_prec_285.txt.gz
QPF
0.00 0.00 0.00 0.00 0.00 0.01 0.00 0.01 0.00 0.00 0.00 0.00 0.06 0.01 0.00 0.00 0.00 0.00 0.00 0.05 0.04 0.02 0.02 0.00 0.01 0.02 0.01 0.00 0.00 0.00 0.00 0.00 0.00 0.00 0.01 0.00 0.00 0.00 0.00 0.00 0.00 0.00 0.00
0.00 0.00 0.00 0.00 0.00 0.00 0.00 0.00 0.00 0.02 0.05 0.03 0.01 0.03 0.01 0.00 0.00 0.00 0.00 0.00 0.02 0.05 0.07 0.03 0.01 0.11 0.02 0.00 0.00 0.02 0.00 0.00 0.00 0.00 0.00 0.00 0.00 0.00 0.00 0.00 0.00 0.00 0.00
0.00 0.00 0.00 0.00 0.00 0.01 0.03 0.00 0.00 0.03 0.02 0.03 0.02 0.02 0.02 0.00 0.00 0.00 0.00 0.00 0.01 0.04 0.06 0.08 0.10 0.04 0.02 0.01 0.02 0.03 0.02 0.00 0.01 0.00 0.00 0.00 0.00 0.00 0.00 0.00 0.00 0.00 0.00
0.02 0.00 0.00 0.00 0.00 0.02 0.02 0.00 0.01 0.14 0.15 0.05 0.03 0.01 0.02 0.00 0.00 0.01 0.00 0.00 0.01 0.08 0.07 0.06 0.10 0.07 0.03 0.05 0.00 0.03 0.06 0.02 0.02 0.01 0.00 0.00 0.00 0.00 0.00 0.00 0.00 0.00 0.00
0.03 0.00 0.00 0.00 0.01 0.09 0.02 0.00 0.01 0.04 0.03 0.01 0.02 0.05 0.03 0.01 0.00 0.00 0.00 0.00 0.01 0.03 0.05 0.03 0.07 0.04 0.05 0.04 0.01 0.03 0.01 0.02 0.02 0.00 0.00 0.00 0.00 0.00 0.00 0.00 0.00 0.00 0.00
0.00 0.00 0.00 0.00 0.00 0.07 0.01 0.01 0.01 0.03 0.02 0.00 0.05 0.07 0.03 0.01 0.00 0.00 0.00 0.00 0.00 0.01 0.03 0.01 0.05 0.03 0.04 0.08 0.11 0.08 0.00 0.00 0.00 0.00 0.00 0.00 0.00 0.00 0.00 0.00 0.00 0.00 0.00
0.00 0.01 0.00 0.00 0.00 0.02 0.01 0.00 0.06 0.10 0.08 0.04 0.04 0.03 0.02 0.02 0.02 0.05 0.01 0.00 0.00 0.00 0.00 0.01 0.00 0.01 0.04 0.12 0.20 0.17 0.03 0.00 0.00 0.00 0.00 0.00 0.00 0.00 0.00 0.00 0.00 0.00 0.00
0.00 0.01 0.01 0.00 0.00 0.01 0.01 0.00 0.00 0.10 0.14 0.01 0.01 0.07 0.04 0.02 0.01 0.02 0.01 0.00 0.02 0.00 0.00 0.00 0.00 0.00 0.01 0.07 0.15 0.09 0.04 0.01 0.00 0.00 0.00 0.00 0.00 0.00 0.00 0.00 0.00 0.00 0.00
0.03 0.00 0.00 0.00 0.00 0.00 0.00 0.00 0.00 0.01 0.00 0.00 0.00 0.03 0.01 0.00 0.02 0.03 0.01 0.02 0.05 0.01 0.00 0.00 0.00 0.00 0.00 0.00 0.03 0.07 0.04 0.00 0.02 0.00 0.00 0.00 0.00 0.00 0.00 0.00 0.00 0.00 0.00
0.01 0.00 0.01 0.00 0.00 0.00 0.00 0.00 0.00 0.00 0.00 0.00 0.00 0.04 0.01 0.00 0.00 0.01 0.01 0.00 0.00 0.00 0.00 0.00 0.00 0.00 0.00 0.00 0.00 0.01 0.01 0.01 0.00 0.00 0.00 0.00 0.00 0.00 0.00 0.00 0.00 0.00 0.00
0.00 0.00 0.00 0.00 0.00 0.00 0.00 0.00 0.01 0.09 0.01 0.01 0.00 0.02 0.00 0.00 0.00 0.01 0.03 0.03 0.00 0.00 0.00 0.00 0.00 0.00 0.00 0.00 0.00 0.00 0.00 0.00 0.00 0.00 0.00 0.00 0.00 0.00 0.00 0.00 0.00 0.00 0.00
0.00 0.00 0.00 0.00 0.00 0.00 0.06 0.00 0.00 0.00 0.01 0.01 0.01 0.02 0.01 0.00 0.00 0.01 0.06 0.08 0.04 0.01 0.00 0.00 0.00 0.00 0.00 0.00 0.00 0.00 0.00 0.00 0.00 0.00 0.00 0.00 0.00 0.00 0.00 0.00 0.00 0.00 0.00
0.00 0.00 0.00 0.01 0.03 0.12 0.19 0.04 0.01 0.01 0.01 0.00 0.01 0.03 0.05 0.03 0.01 0.02 0.06 0.02 0.01 0.03 0.01 0.00 0.00 0.00 0.00 0.00 0.00 0.00 0.00 0.00 0.00 0.00 0.00 0.00 0.00 0.00 0.00 0.00 0.00 0.00 0.00
0.00 0.01 0.01 0.05 0.15 0.24 0.21 0.12 0.05 0.03 0.01 0.00 0.00 0.00 0.00 0.06 0.07 0.01 0.01 0.00 0.01 0.01 0.01 0.00 0.00 0.00 0.00 0.00 0.00 0.00 0.00 0.00 0.00 0.00 0.00 0.00 0.00 0.00 0.00 0.00 0.00 0.00 0.00
0.00 0.05 0.15 0.02 0.33 0.34 0.22 0.15 0.07 0.03 0.01 0.00 0.00 0.00 0.00 0.01 0.03 0.02 0.03 0.02 0.01 0.00 0.00 0.00 0.00 0.00 0.00 0.00 0.00 0.00 0.00 0.00 0.00 0.00 0.00 0.00 0.00 0.00 0.00 0.00 0.00 0.00 0.00
0.01 0.10 0.36 0.07 0.16 0.27 0.15 0.16 0.04 0.03 0.00 0.00 0.00 0.00 0.00 0.00 0.04 0.06 0.07 0.05 0.02 0.01 0.00 0.00 0.00 0.00 0.00 0.00 0.00 0.00 0.00 0.00 0.00 0.00 0.00 0.00 0.00 0.00 0.00 0.00 0.00 0.00 0.00
0.00 0.29 0.43 0.20 0.06 0.03 0.01 0.01 0.01 0.01 0.00 0.00 0.00 0.00 0.00 0.03 0.06 0.08 0.06 0.03 0.00 0.00 0.00 0.00 0.00 0.00 0.00 0.00 0.00 0.00 0.00 0.00 0.00 0.00 0.00 0.00 0.00 0.00 0.00 0.00 0.00 0.00 0.00
0.00 0.02 0.04 0.02 0.01 0.01 0.00 0.00 0.00 0.00 0.00 0.00 0.00 0.00 0.05 0.13 0.08 0.06 0.03 0.02 0.03 0.02 0.01 0.01 0.00 0.00 0.00 0.00 0.00 0.00 0.00 0.00 0.00 0.00 0.00 0.00 0.00 0.00 0.00 0.00 0.00 0.00 0.00
0.00 0.00 0.00 0.00 0.00 0.00 0.00 0.00 0.00 0.00 0.00 0.00 0.00 0.03 0.10 0.06 0.05 0.12 0.06 0.02 0.03 0.04 0.03 0.01 0.04 0.01 0.02 0.02 0.00 0.00 0.00 0.00 0.00 0.00 0.00 0.00 0.00 0.00 0.00 0.00 0.00 0.00 0.00
0.00 0.00 0.00 0.00 0.00 0.00 0.00 0.00 0.00 0.00 0.00 0.00 0.00 0.01 0.01 0.00 0.01 0.02 0.02 0.01 0.02 0.03 0.04 0.05 0.07 0.02 0.01 0.04 0.02 0.00 0.00 0.00 0.00 0.00 0.00 0.00 0.00 0.00 0.00 0.00 0.00 0.00 0.00
0.00 0.00 0.00 0.00 0.00 0.00 0.00 0.00 0.00 0.00 0.00 0.00 0.00 0.00 0.00 0.00 0.01 0.02 0.02 0.02 0.05 0.05 0.05 0.05 0.06 0.04 0.01 0.01 0.02 0.04 0.00 0.00 0.00 0.00 0.00 0.00 0.00 0.00 0.00 0.00 0.00 0.00 0.00
0.00 0.00 0.00 0.00 0.00 0.00 0.00 0.00 0.00 0.00 0.00 0.00 0.00 0.00 0.00 0.00 0.00 0.01 0.05 0.08 0.10 0.11 0.09 0.08 0.09 0.07 0.05 0.01 0.00 0.01 0.02 0.02 0.01 0.00 0.02 0.02 0.01 0.00 0.00 0.00 0.03 0.01 0.00
0.00 0.00 0.00 0.00 0.00 0.00 0.00 0.00 0.00 0.00 0.00 0.00 0.00 0.00 0.00 0.00 0.00 0.00 0.00 0.03 0.08 0.11 0.08 0.09 0.08 0.05 0.04 0.07 0.07 0.02 0.03 0.05 0.04 0.05 0.08 0.03 0.08 0.04 0.06 0.01 0.04 0.06 0.05
0.00 0.00 0.00 0.00 0.00 0.00 0.00 0.00 0.00 0.00 0.00 0.00 0.01 0.01 0.00 0.00 0.00 0.00 0.00 0.00 0.00 0.02 0.02 0.02 0.03 0.04 0.04 0.04 0.09 0.13 0.11 0.11 0.15 0.06 0.00 0.00 0.01 0.00 0.02 0.01 0.03 0.02 0.01
0.00 0.00 0.00 0.00 0.00 0.00 0.00 0.01 0.00 0.00 0.00 0.01 0.01 0.01 0.00 0.00 0.02 0.00 0.00 0.00 0.00 0.00 0.00 0.01 0.07 0.16 0.15 0.09 0.09 0.11 0.22 0.23 0.16 0.12 0.03 0.03 0.01 0.00 0.03 0.03 0.02 0.02 0.01
0.00 0.00 0.00 0.00 0.00 0.00 0.00 0.00 0.01 0.00 0.00 0.00 0.00 0.00 0.01 0.00 0.04 0.01 0.00 0.00 0.00 0.00 0.00 0.00 0.00 0.00 0.03 0.07 0.05 0.05 0.15 0.16 0.26 0.24 0.11 0.07 0.06 0.07 0.04 0.04 0.05 0.02 0.03

GFSMA_prec_prec_288.txt.gz
QPF
0.00 0.00 0.00 0.00 0.00 0.00 0.00 0.00 0.00 0.00 0.00 0.00 0.00 0.00 0.00 0.00 0.00 0.00 0.03 0.11 0.03 0.01 0.01 0.00 0.00 0.01 0.08 0.05 0.01 0.00 0.00 0.00 0.01 0.00 0.00 0.00 0.00 0.00 0.00 0.00 0.00 0.00 0.00
0.00 0.00 0.00 0.00 0.00 0.00 0.00 0.00 0.01 0.00 0.00 0.01 0.01 0.02 0.00 0.00 0.00 0.00 0.00 0.04 0.09 0.01 0.02 0.01 0.00 0.02 0.03 0.04 0.03 0.01 0.04 0.01 0.02 0.01 0.01 0.00 0.00 0.00 0.00 0.00 0.00 0.00 0.00
0.00 0.01 0.04 0.00 0.00 0.00 0.00 0.00 0.00 0.00 0.01 0.02 0.01 0.02 0.03 0.00 0.00 0.00 0.00 0.00 0.03 0.04 0.02 0.04 0.06 0.06 0.08 0.01 0.04 0.04 0.04 0.04 0.02 0.05 0.02 0.00 0.00 0.00 0.00 0.00 0.00 0.00 0.00
0.00 0.00 0.02 0.00 0.00 0.02 0.06 0.04 0.00 0.06 0.18 0.19 0.11 0.08 0.02 0.01 0.00 0.00 0.00 0.00 0.00 0.02 0.00 0.02 0.05 0.06 0.09 0.05 0.02 0.05 0.06 0.03 0.04 0.05 0.03 0.00 0.00 0.00 0.00 0.00 0.00 0.00 0.00
0.01 0.00 0.00 0.01 0.00 0.02 0.07 0.10 0.08 0.17 0.08 0.07 0.10 0.08 0.05 0.01 0.00 0.00 0.00 0.00 0.00 0.00 0.00 0.01 0.00 0.03 0.05 0.03 0.05 0.07 0.06 0.04 0.03 0.02 0.01 0.00 0.00 0.00 0.00 0.00 0.00 0.00 0.00
0.00 0.00 0.00 0.00 0.01 0.01 0.01 0.00 0.02 0.04 0.05 0.12 0.05 0.10 0.08 0.06 0.02 0.00 0.00 0.00 0.00 0.00 0.00 0.00 0.00 0.02 0.03 0.03 0.10 0.12 0.06 0.03 0.01 0.02 0.01 0.00 0.00 0.00 0.00 0.00 0.00 0.00 0.00
0.00 0.01 0.00 0.00 0.00 0.00 0.00 0.01 0.09 0.17 0.15 0.05 0.01 0.03 0.06 0.02 0.08 0.05 0.03 0.03 0.00 0.00 0.00 0.00 0.00 0.00 0.02 0.02 0.04 0.08 0.08 0.04 0.01 0.01 0.01 0.00 0.01 0.00 0.00 0.00 0.00 0.00 0.00
0.01 0.01 0.03 0.00 0.00 0.00 0.00 0.01 0.08 0.11 0.16 0.02 0.02 0.04 0.01 0.01 0.00 0.10 0.12 0.04 0.03 0.00 0.00 0.00 0.00 0.00 0.00 0.00 0.00 0.01 0.03 0.12 0.06 0.01 0.00 0.00 0.00 0.00 0.00 0.00 0.00 0.00 0.00
0.05 0.01 0.03 0.02 0.00 0.01 0.00 0.00 0.00 0.01 0.12 0.02 0.00 0.03 0.02 0.00 0.00 0.02 0.06 0.13 0.04 0.00 0.00 0.00 0.00 0.00 0.00 0.00 0.00 0.01 0.02 0.05 0.09 0.02 0.01 0.00 0.00 0.00 0.00 0.00 0.00 0.00 0.00
0.04 0.01 0.01 0.02 0.01 0.00 0.00 0.00 0.00 0.03 0.05 0.01 0.00 0.07 0.03 0.00 0.00 0.00 0.00 0.01 0.02 0.00 0.00 0.00 0.00 0.00 0.00 0.00 0.00 0.00 0.01 0.02 0.03 0.04 0.03 0.01 0.00 0.00 0.00 0.00 0.00 0.00 0.00
0.00 0.00 0.03 0.04 0.05 0.01 0.00 0.00 0.00 0.03 0.01 0.01 0.00 0.02 0.02 0.00 0.00 0.00 0.01 0.01 0.01 0.01 0.00 0.00 0.00 0.00 0.00 0.00 0.00 0.00 0.00 0.01 0.02 0.02 0.02 0.01 0.00 0.00 0.00 0.00 0.00 0.00 0.00
0.00 0.00 0.00 0.04 0.06 0.03 0.04 0.04 0.01 0.00 0.01 0.02 0.01 0.00 0.00 0.00 0.01 0.00 0.00 0.02 0.04 0.03 0.00 0.00 0.00 0.00 0.00 0.00 0.00 0.00 0.00 0.00 0.00 0.00 0.00 0.00 0.00 0.00 0.00 0.00 0.00 0.00 0.00
0.00 0.04 0.00 0.02 0.05 0.05 0.13 0.17 0.04 0.00 0.00 0.00 0.01 0.01 0.01 0.02 0.02 0.02 0.02 0.02 0.01 0.03 0.03 0.00 0.00 0.00 0.00 0.00 0.00 0.00 0.00 0.00 0.00 0.00 0.00 0.00 0.00 0.00 0.00 0.00 0.00 0.00 0.00
0.00 0.01 0.01 0.03 0.11 0.09 0.17 0.31 0.23 0.11 0.03 0.01 0.00 0.00 0.01 0.01 0.02 0.02 0.02 0.02 0.02 0.01 0.04 0.01 0.01 0.00 0.00 0.00 0.00 0.00 0.00 0.00 0.00 0.00 0.00 0.00 0.00 0.00 0.00 0.00 0.00 0.00 0.00
0.02 0.06 0.09 0.06 0.27 0.41 0.38 0.49 0.57 0.22 0.07 0.02 0.01 0.00 0.00 0.00 0.00 0.01 0.00 0.01 0.02 0.02 0.02 0.00 0.00 0.00 0.00 0.00 0.00 0.00 0.00 0.00 0.00 0.00 0.00 0.00 0.00 0.00 0.00 0.00 0.00 0.00 0.00
0.04 0.06 0.22 0.39 0.31 0.24 0.20 0.18 0.22 0.17 0.04 0.02 0.00 0.00 0.00 0.00 0.00 0.00 0.00 0.01 0.04 0.04 0.02 0.01 0.00 0.00 0.00 0.00 0.00 0.00 0.00 0.00 0.00 0.00 0.00 0.00 0.00 0.00 0.00 0.00 0.00 0.00 0.00
0.02 0.08 0.45 0.23 0.05 0.02 0.01 0.00 0.00 0.00 0.00 0.00 0.00 0.00 0.00 0.00 0.00 0.00 0.01 0.01 0.03 0.02 0.00 0.01 0.00 0.00 0.00 0.00 0.00 0.00 0.00 0.00 0.00 0.00 0.00 0.00 0.00 0.00 0.00 0.00 0.00 0.00 0.00
0.00 0.05 0.10 0.02 0.00 0.00 0.00 0.00 0.00 0.00 0.00 0.00 0.00 0.00 0.00 0.02 0.03 0.04 0.05 0.03 0.03 0.04 0.01 0.00 0.01 0.01 0.00 0.00 0.00 0.00 0.00 0.00 0.00 0.00 0.00 0.00 0.00 0.00 0.00 0.00 0.00 0.00 0.00
0.00 0.01 0.03 0.03 0.00 0.00 0.00 0.00 0.00 0.00 0.00 0.00 0.00 0.00 0.00 0.01 0.04 0.07 0.05 0.03 0.02 0.02 0.01 0.00 0.01 0.03 0.00 0.00 0.00 0.00 0.00 0.00 0.00 0.00 0.00 0.00 0.00 0.00 0.00 0.00 0.00 0.00 0.00
0.00 0.00 0.00 0.00 0.00 0.00 0.00 0.00 0.00 0.00 0.00 0.00 0.00 0.00 0.00 0.00 0.00 0.00 0.01 0.01 0.02 0.02 0.01 0.01 0.04 0.11 0.11 0.08 0.04 0.02 0.00 0.00 0.00 0.00 0.00 0.00 0.00 0.00 0.00 0.00 0.00 0.00 0.00
0.00 0.00 0.00 0.00 0.00 0.00 0.00 0.00 0.00 0.00 0.00 0.00 0.00 0.00 0.00 0.00 0.00 0.00 0.00 0.01 0.02 0.03 0.02 0.02 0.02 0.01 0.02 0.02 0.01 0.09 0.09 0.10 0.02 0.00 0.00 0.00 0.00 0.00 0.00 0.00 0.00 0.00 0.00
0.00 0.00 0.00 0.00 0.00 0.00 0.00 0.00 0.00 0.00 0.00 0.00 0.00 0.00 0.00 0.00 0.00 0.00 0.00 0.01 0.01 0.02 0.03 0.05 0.13 0.21 0.11 0.04 0.03 0.02 0.03 0.03 0.00 0.00 0.00 0.00 0.00 0.00 0.00 0.00 0.00 0.00 0.00
0.00 0.00 0.00 0.00 0.00 0.00 0.00 0.00 0.00 0.00 0.00 0.00 0.00 0.00 0.00 0.00 0.00 0.00 0.00 0.00 0.02 0.05 0.07 0.07 0.12 0.14 0.12 0.10 0.05 0.01 0.00 0.00 0.00 0.03 0.09 0.02 0.03 0.00 0.00 0.00 0.00 0.00 0.00
0.00 0.00 0.00 0.00 0.00 0.00 0.00 0.00 0.00 0.00 0.00 0.00 0.00 0.00 0.00 0.00 0.00 0.00 0.00 0.00 0.00 0.00 0.04 0.07 0.16 0.12 0.04 0.05 0.09 0.09 0.03 0.02 0.02 0.03 0.06 0.02 0.02 0.01 0.00 0.00 0.00 0.00 0.00
0.00 0.00 0.00 0.00 0.00 0.00 0.00 0.00 0.00 0.00 0.00 0.00 0.00 0.00 0.00 0.00 0.00 0.00 0.00 0.00 0.00 0.00 0.00 0.00 0.00 0.05 0.16 0.24 0.16 0.10 0.07 0.06 0.06 0.10 0.24 0.19 0.10 0.07 0.05 0.03 0.04 0.04 0.01
0.00 0.00 0.00 0.00 0.00 0.00 0.00 0.00 0.00 0.02 0.02 0.06 0.08 0.06 0.01 0.01 0.00 0.00 0.00 0.00 0.00 0.00 0.00 0.00 0.00 0.00 0.00 0.03 0.13 0.12 0.10 0.29 0.34 0.21 0.12 0.30 0.38 0.23 0.06 0.02 0.06 0.09 0.09

GFSMA_prec_prec_291.txt.gz
QPF
0.00 0.00 0.00 0.00 0.00 0.00 0.01 0.00 0.01 0.00 0.00 0.00 0.00 0.00 0.00 0.03 0.06 0.00 0.00 0.04 0.01 0.05 0.04 0.00 0.00 0.04 0.03 0.08 0.00 0.02 0.08 0.01 0.01 0.00 0.00 0.00 0.00 0.00 0.00 0.00 0.00 0.00 0.00
0.00 0.00 0.00 0.00 0.00 0.01 0.06 0.02 0.01 0.01 0.02 0.01 0.02 0.01 0.00 0.00 0.00 0.00 0.00 0.01 0.05 0.01 0.03 0.04 0.01 0.05 0.02 0.08 0.03 0.00 0.02 0.03 0.06 0.00 0.00 0.00 0.00 0.00 0.00 0.00 0.00 0.00 0.00
0.00 0.00 0.04 0.00 0.00 0.00 0.02 0.02 0.00 0.00 0.03 0.11 0.07 0.12 0.08 0.03 0.02 0.00 0.00 0.00 0.02 0.01 0.05 0.02 0.04 0.03 0.01 0.03 0.02 0.06 0.03 0.04 0.10 0.00 0.00 0.00 0.00 0.00 0.00 0.00 0.00 0.00 0.00
0.00 0.00 0.00 0.00 0.00 0.00 0.00 0.01 0.11 0.11 0.23 0.25 0.27 0.18 0.13 0.02 0.06 0.02 0.00 0.00 0.03 0.04 0.03 0.02 0.01 0.03 0.03 0.02 0.03 0.04 0.05 0.02 0.06 0.01 0.00 0.00 0.00 0.00 0.00 0.00 0.00 0.00 0.00
0.00 0.00 0.00 0.00 0.00 0.00 0.00 0.00 0.02 0.18 0.16 0.04 0.13 0.16 0.12 0.06 0.05 0.05 0.00 0.00 0.00 0.04 0.06 0.03 0.01 0.02 0.04 0.04 0.01 0.04 0.07 0.05 0.02 0.02 0.00 0.00 0.00 0.00 0.00 0.00 0.00 0.00 0.00
0.00 0.00 0.00 0.00 0.00 0.00 0.00 0.01 0.07 0.01 0.07 0.10 0.03 0.16 0.16 0.03 0.01 0.03 0.05 0.01 0.00 0.02 0.05 0.01 0.00 0.01 0.05 0.07 0.05 0.06 0.06 0.07 0.02 0.01 0.00 0.00 0.00 0.00 0.00 0.00 0.00 0.00 0.00
0.00 0.00 0.00 0.00 0.00 0.00 0.00 0.02 0.04 0.05 0.17 0.10 0.02 0.02 0.04 0.03 0.02 0.05 0.07 0.11 0.03 0.00 0.00 0.00 0.00 0.00 0.01 0.03 0.04 0.05 0.03 0.04 0.01 0.00 0.01 0.00 0.01 0.01 0.00 0.00 0.00 0.00 0.00
0.00 0.00 0.00 0.00 0.00 0.00 0.00 0.01 0.01 0.02 0.07 0.08 0.04 0.02 0.02 0.04 0.01 0.05 0.12 0.07 0.09 0.02 0.00 0.00 0.00 0.00 0.00 0.00 0.00 0.01 0.01 0.01 0.01 0.00 0.00 0.00 0.01 0.02 0.00 0.00 0.00 0.00 0.00
0.01 0.00 0.00 0.00 0.00 0.00 0.00 0.00 0.00 0.00 0.03 0.01 0.01 0.06 0.03 0.05 0.04 0.01 0.03 0.06 0.18 0.03 0.00 0.00 0.00 0.00 0.00 0.00 0.00 0.00 0.00 0.00 0.00 0.01 0.00 0.01 0.00 0.00 0.01 0.00 0.00 0.00 0.00
0.00 0.00 0.00 0.00 0.00 0.00 0.00 0.00 0.01 0.01 0.01 0.01 0.00 0.00 0.02 0.03 0.09 0.05 0.02 0.01 0.04 0.03 0.00 0.00 0.00 0.00 0.00 0.00 0.00 0.00 0.00 0.00 0.00 0.00 0.01 0.02 0.01 0.00 0.00 0.00 0.00 0.00 0.00
0.00 0.00 0.00 0.00 0.00 0.00 0.00 0.00 0.00 0.04 0.00 0.00 0.00 0.02 0.01 0.00 0.00 0.02 0.05 0.01 0.01 0.01 0.01 0.00 0.00 0.00 0.00 0.00 0.00 0.00 0.00 0.00 0.00 0.00 0.00 0.01 0.03 0.00 0.00 0.00 0.00 0.00 0.00
0.00 0.00 0.00 0.00 0.00 0.00 0.00 0.00 0.00 0.06 0.03 0.00 0.01 0.05 0.05 0.07 0.04 0.00 0.01 0.02 0.02 0.09 0.08 0.01 0.00 0.00 0.00 0.00 0.00 0.00 0.00 0.00 0.00 0.00 0.00 0.00 0.00 0.01 0.00 0.00 0.00 0.00 0.00
0.00 0.00 0.00 0.00 0.00 0.00 0.00 0.00 0.00 0.01 0.05 0.02 0.02 0.03 0.03 0.05 0.08 0.08 0.04 0.05 0.02 0.02 0.07 0.03 0.00 0.00 0.00 0.00 0.00 0.00 0.00 0.00 0.00 0.00 0.00 0.00 0.00 0.00 0.00 0.00 0.00 0.00 0.00
0.00 0.00 0.00 0.00 0.01 0.00 0.00 0.02 0.07 0.13 0.35 0.23 0.07 0.06 0.05 0.08 0.07 0.05 0.04 0.04 0.01 0.03 0.02 0.01 0.01 0.00 0.00 0.00 0.00 0.00 0.00 0.00 0.00 0.00 0.00 0.00 0.00 0.00 0.00 0.00 0.00 0.00 0.00
0.01 0.03 0.04 0.02 0.01 0.01 0.00 0.05 0.22 0.69 0.86 0.71 0.18 0.07 0.04 0.07 0.09 0.08 0.02 0.02 0.03 0.04 0.01 0.00 0.04 0.00 0.00 0.00 0.00 0.00 0.00 0.00 0.00 0.00 0.00 0.00 0.00 0.00 0.00 0.00 0.00 0.00 0.00
0.01 0.02 0.08 0.07 0.01 0.00 0.01 0.01 0.05 0.24 0.22 0.03 0.02 0.02 0.00 0.00 0.02 0.02 0.00 0.00 0.01 0.02 0.01 0.00 0.03 0.02 0.00 0.00 0.00 0.00 0.00 0.00 0.00 0.00 0.00 0.00 0.00 0.00 0.00 0.00 0.00 0.00 0.00
0.02 0.03 0.04 0.01 0.00 0.00 0.00 0.02 0.09 0.08 0.03 0.01 0.00 0.01 0.00 0.01 0.02 0.01 0.01 0.01 0.01 0.02 0.00 0.00 0.00 0.00 0.00 0.01 0.00 0.00 0.00 0.00 0.00 0.00 0.00 0.00 0.00 0.00 0.00 0.00 0.00 0.00 0.00
0.01 0.06 0.12 0.02 0.01 0.02 0.00 0.01 0.03 0.03 0.07 0.06 0.01 0.01 0.00 0.03 0.02 0.01 0.01 0.01 0.00 0.00 0.00 0.00 0.00 0.00 0.00 0.00 0.00 0.00 0.00 0.00 0.00 0.00 0.00 0.00 0.00 0.00 0.00 0.00 0.00 0.00 0.00
0.01 0.05 0.02 0.00 0.00 0.00 0.00 0.00 0.01 0.01 0.01 0.00 0.00 0.00 0.01 0.01 0.00 0.00 0.00 0.00 0.00 0.00 0.00 0.01 0.00 0.00 0.00 0.00 0.00 0.00 0.00 0.00 0.00 0.00 0.00 0.00 0.00 0.00 0.00 0.00 0.00 0.00 0.00
0.00 0.00 0.00 0.00 0.00 0.00 0.00 0.00 0.00 0.00 0.00 0.00 0.00 0.00 0.00 0.00 0.00 0.01 0.00 0.00 0.00 0.01 0.02 0.02 0.01 0.01 0.01 0.02 0.03 0.01 0.00 0.00 0.00 0.00 0.00 0.00 0.00 0.00 0.00 0.00 0.00 0.00 0.00
0.00 0.00 0.00 0.00 0.00 0.00 0.00 0.00 0.00 0.00 0.00 0.00 0.00 0.00 0.00 0.00 0.00 0.01 0.00 0.00 0.00 0.01 0.01 0.02 0.02 0.01 0.01 0.02 0.04 0.05 0.06 0.04 0.01 0.01 0.00 0.00 0.00 0.00 0.00 0.00 0.00 0.00 0.00
0.00 0.00 0.00 0.00 0.00 0.00 0.00 0.00 0.00 0.00 0.00 0.00 0.00 0.00 0.00 0.00 0.00 0.00 0.00 0.00 0.00 0.01 0.01 0.01 0.02 0.05 0.20 0.14 0.04 0.02 0.01 0.03 0.01 0.01 0.02 0.00 0.00 0.00 0.00 0.00 0.00 0.00 0.00
0.00 0.00 0.00 0.00 0.00 0.00 0.00 0.00 0.00 0.00 0.00 0.00 0.00 0.00 0.00 0.00 0.00 0.00 0.00 0.00 0.00 0.00 0.00 0.02 0.02 0.08 0.29 0.38 0.10 0.03 0.01 0.02 0.01 0.01 0.02 0.01 0.02 0.00 0.00 0.00 0.00 0.00 0.00
0.00 0.00 0.00 0.00 0.00 0.00 0.00 0.00 0.00 0.00 0.00 0.00 0.00 0.00 0.00 0.00 0.00 0.00 0.00 0.00 0.00 0.00 0.00 0.00 0.00 0.09 0.16 0.14 0.06 0.03 0.03 0.01 0.01 0.02 0.02 0.01 0.01 0.00 0.00 0.00 0.01 0.01 0.00
0.00 0.00 0.00 0.00 0.00 0.00 0.00 0.00 0.00 0.00 0.00 0.00 0.00 0.00 0.00 0.00 0.02 0.02 0.00 0.00 0.00 0.00 0.00 0.00 0.00 0.00 0.01 0.04 0.09 0.07 0.09 0.07 0.05 0.03 0.03 0.03 0.02 0.02 0.02 0.02 0.03 0.06 0.06
0.00 0.00 0.00 0.00 0.00 0.00 0.00 0.00 0.00 0.00 0.00 0.04 0.04 0.00 0.07 0.05 0.01 0.01 0.00 0.00 0.00 0.00 0.00 0.00 0.00 0.00 0.00 0.00 0.02 0.07 0.17 0.24 0.28 0.21 0.16 0.21 0.21 0.41 0.39 0.25 0.19 0.12 0.09

GFSMA_prec_prec_297.txt.gz
QPF
0.00 0.00 0.00 0.00 0.00 0.00 0.00 0.01 0.02 0.02 0.00 0.01 0.02 0.05 0.08 0.05 0.02 0.00 0.00 0.00 0.00 0.03 0.01 0.06 0.01 0.02 0.02 0.04 0.02 0.00 0.00 0.00 0.00 0.01 0.01 0.00 0.00 0.00 0.00 0.00 0.00 0.00 0.00
0.01 0.01 0.02 0.00 0.00 0.00 0.00 0.01 0.07 0.06 0.00 0.01 0.00 0.02 0.04 0.07 0.08 0.03 0.08 0.00 0.01 0.00 0.00 0.01 0.05 0.05 0.04 0.04 0.10 0.03 0.00 0.00 0.00 0.01 0.00 0.00 0.00 0.00 0.00 0.00 0.00 0.00 0.00
0.09 0.08 0.20 0.07 0.02 0.00 0.00 0.03 0.08 0.01 0.01 0.00 0.03 0.01 0.01 0.00 0.05 0.01 0.01 0.02 0.01 0.00 0.00 0.00 0.00 0.02 0.06 0.13 0.05 0.05 0.02 0.02 0.02 0.00 0.00 0.00 0.00 0.00 0.00 0.00 0.00 0.00 0.00
0.17 0.19 0.10 0.02 0.00 0.00 0.01 0.14 0.09 0.01 0.01 0.02 0.11 0.06 0.02 0.01 0.00 0.02 0.01 0.01 0.03 0.00 0.00 0.00 0.00 0.01 0.03 0.08 0.07 0.10 0.01 0.02 0.08 0.01 0.00 0.00 0.00 0.00 0.00 0.00 0.00 0.00 0.00
0.04 0.15 0.03 0.00 0.00 0.00 0.01 0.21 0.13 0.01 0.02 0.03 0.06 0.10 0.36 0.12 0.08 0.05 0.12 0.09 0.06 0.00 0.01 0.05 0.01 0.00 0.00 0.00 0.01 0.05 0.04 0.02 0.05 0.02 0.00 0.00 0.00 0.00 0.00 0.00 0.00 0.00 0.00
0.00 0.00 0.00 0.03 0.00 0.01 0.06 0.25 0.26 0.15 0.18 0.09 0.03 0.15 0.09 0.03 0.03 0.11 0.28 0.23 0.02 0.00 0.00 0.06 0.02 0.00 0.00 0.01 0.02 0.01 0.02 0.01 0.01 0.02 0.00 0.00 0.00 0.00 0.00 0.00 0.00 0.00 0.00
0.00 0.00 0.00 0.02 0.04 0.02 0.12 0.17 0.16 0.07 0.22 0.10 0.02 0.05 0.12 0.09 0.03 0.12 0.15 0.34 0.07 0.01 0.00 0.08 0.12 0.00 0.00 0.00 0.01 0.03 0.00 0.01 0.01 0.00 0.01 0.00 0.01 0.00 0.00 0.00 0.00 0.00 0.00
0.00 0.00 0.00 0.01 0.04 0.02 0.06 0.06 0.09 0.12 0.12 0.00 0.02 0.05 0.11 0.14 0.03 0.06 0.03 0.06 0.01 0.04 0.03 0.01 0.00 0.00 0.00 0.00 0.00 0.01 0.01 0.01 0.02 0.00 0.00 0.00 0.00 0.00 0.00 0.00 0.00 0.00 0.00
0.00 0.00 0.00 0.00 0.00 0.00 0.05 0.09 0.06 0.09 0.14 0.04 0.01 0.01 0.12 0.15 0.07 0.24 0.10 0.02 0.00 0.04 0.05 0.03 0.00 0.01 0.00 0.08 0.00 0.00 0.00 0.00 0.01 0.00 0.00 0.00 0.00 0.00 0.00 0.00 0.00 0.00 0.00
0.00 0.00 0.00 0.02 0.01 0.01 0.03 0.05 0.05 0.06 0.08 0.09 0.07 0.05 0.08 0.13 0.08 0.13 0.26 0.25 0.07 0.01 0.01 0.01 0.04 0.04 0.00 0.00 0.00 0.00 0.00 0.00 0.00 0.00 0.01 0.00 0.00 0.00 0.00 0.00 0.00 0.00 0.00
0.00 0.00 0.00 0.03 0.03 0.01 0.01 0.00 0.02 0.06 0.08 0.12 0.07 0.12 0.11 0.12 0.08 0.03 0.13 0.15 0.11 0.05 0.07 0.14 0.07 0.09 0.02 0.01 0.00 0.00 0.00 0.00 0.00 0.00 0.00 0.01 0.01 0.00 0.00 0.00 0.00 0.00 0.00
0.00 0.00 0.00 0.02 0.03 0.05 0.05 0.04 0.08 0.12 0.15 0.08 0.11 0.12 0.12 0.12 0.13 0.15 0.19 0.22 0.25 0.18 0.05 0.12 0.17 0.11 0.08 0.05 0.00 0.00 0.00 0.00 0.00 0.00 0.00 0.00 0.02 0.00 0.00 0.00 0.00 0.00 0.00
0.00 0.00 0.00 0.00 0.00 0.07 0.08 0.06 0.15 0.18 0.30 0.22 0.24 0.24 0.18 0.16 0.15 0.08 0.09 0.13 0.29 0.26 0.06 0.01 0.03 0.10 0.13 0.02 0.00 0.00 0.01 0.00 0.00 0.00 0.00 0.00 0.00 0.00 0.00 0.00 0.00 0.00 0.00
0.00 0.00 0.02 0.00 0.00 0.02 0.14 0.14 0.13 0.16 0.19 0.07 0.01 0.01 0.04 0.05 0.05 0.08 0.11 0.10 0.12 0.19 0.16 0.03 0.01 0.02 0.05 0.08 0.03 0.01 0.00 0.00 0.00 0.00 0.00 0.00 0.00 0.00 0.00 0.00 0.00 0.00 0.00
0.00 0.00 0.00 0.00 0.00 0.01 0.06 0.01 0.08 0.05 0.07 0.04 0.01 0.00 0.00 0.01 0.04 0.07 0.05 0.08 0.14 0.11 0.09 0.11 0.12 0.04 0.01 0.04 0.09 0.05 0.00 0.00 0.00 0.00 0.00 0.00 0.00 0.00 0.00 0.00 0.00 0.00 0.00
0.00 0.00 0.00 0.00 0.00 0.01 0.00 0.00 0.08 0.09 0.06 0.03 0.01 0.00 0.00 0.02 0.08 0.12 0.09 0.08 0.14 0.11 0.09 0.12 0.16 0.09 0.02 0.04 0.11 0.06 0.12 0.09 0.00 0.00 0.00 0.00 0.00 0.00 0.00 0.00 0.00 0.00 0.00
0.00 0.00 0.00 0.00 0.01 0.05 0.02 0.03 0.07 0.06 0.03 0.01 0.00 0.01 0.00 0.02 0.12 0.14 0.11 0.10 0.17 0.16 0.12 0.04 0.08 0.13 0.13 0.08 0.05 0.13 0.18 0.13 0.03 0.00 0.00 0.00 0.00 0.00 0.00 0.00 0.00 0.00 0.00
0.00 0.00 0.00 0.00 0.00 0.01 0.01 0.01 0.01 0.00 0.00 0.00 0.00 0.01 0.02 0.05 0.05 0.13 0.14 0.11 0.15 0.16 0.17 0.06 0.11 0.16 0.12 0.05 0.04 0.11 0.12 0.11 0.05 0.01 0.00 0.00 0.00 0.00 0.00 0.00 0.00 0.00 0.00
0.00 0.00 0.00 0.00 0.00 0.00 0.00 0.00 0.01 0.02 0.00 0.00 0.00 0.00 0.02 0.03 0.02 0.03 0.03 0.01 0.02 0.03 0.05 0.05 0.02 0.07 0.11 0.11 0.06 0.03 0.03 0.01 0.04 0.01 0.00 0.00 0.00 0.00 0.00 0.00 0.00 0.00 0.00
0.00 0.00 0.00 0.00 0.00 0.00 0.00 0.00 0.00 0.01 0.00 0.00 0.00 0.00 0.00 0.00 0.00 0.01 0.01 0.01 0.01 0.00 0.01 0.02 0.01 0.01 0.03 0.09 0.15 0.18 0.16 0.07 0.03 0.00 0.01 0.00 0.00 0.00 0.00 0.00 0.00 0.00 0.00
0.00 0.00 0.00 0.00 0.00 0.00 0.00 0.01 0.00 0.00 0.00 0.00 0.00 0.00 0.00 0.00 0.00 0.00 0.00 0.00 0.01 0.01 0.00 0.00 0.01 0.03 0.03 0.04 0.05 0.09 0.13 0.13 0.14 0.11 0.14 0.09 0.05 0.01 0.00 0.00 0.00 0.00 0.00
0.00 0.00 0.00 0.00 0.00 0.00 0.00 0.00 0.00 0.01 0.01 0.01 0.00 0.00 0.00 0.00 0.00 0.00 0.00 0.00 0.00 0.00 0.00 0.00 0.01 0.01 0.00 0.01 0.02 0.04 0.06 0.09 0.08 0.06 0.07 0.06 0.15 0.13 0.04 0.01 0.00 0.00 0.00
0.00 0.00 0.00 0.00 0.01 0.00 0.00 0.00 0.00 0.00 0.00 0.00 0.00 0.00 0.00 0.00 0.00 0.00 0.00 0.00 0.00 0.00 0.00 0.00 0.01 0.01 0.02 0.04 0.04 0.03 0.05 0.06 0.06 0.07 0.05 0.01 0.06 0.05 0.04 0.04 0.05 0.00 0.00
0.00 0.00 0.00 0.00 0.00 0.00 0.00 0.00 0.00 0.00 0.00 0.00 0.00 0.00 0.00 0.00 0.00 0.00 0.00 0.00 0.00 0.00 0.00 0.00 0.00 0.00 0.01 0.03 0.04 0.05 0.04 0.04 0.06 0.06 0.13 0.09 0.10 0.08 0.10 0.04 0.09 0.06 0.03
0.00 0.00 0.00 0.00 0.00 0.00 0.00 0.00 0.00 0.00 0.00 0.00 0.00 0.00 0.00 0.00 0.00 0.00 0.00 0.00 0.01 0.00 0.00 0.00 0.00 0.00 0.00 0.00 0.01 0.03 0.04 0.05 0.04 0.03 0.13 0.33 0.41 0.43 0.14 0.05 0.06 0.07 0.08
0.00 0.00 0.00 0.00 0.00 0.00 0.00 0.00 0.00 0.00 0.00 0.00 0.00 0.00 0.00 0.00 0.01 0.01 0.03 0.05 0.05 0.00 0.00 0.01 0.00 0.00 0.00 0.00 0.00 0.00 0.02 0.03 0.03 0.02 0.12 0.18 0.12 0.13 0.10 0.03 0.04 0.05 0.05